Hourly Data Report for October 28, 2019

SHEARWATER RCS
NOVA SCOTIA
Current Station Operator: ECCC - MSC

44°37'47.000" N
63°30'48.000" W
24.00 m
8205092
71264
AAW

Download Data

Hourly Data (October 2019)
Hourly Data Report for October 28, 2019
TIME
LST
Temp Definition
°C
Dew Point Definition
°C
Rel Hum Definition
%
Precip. Amount Definition
mm

Wind Dir Definition
10's deg

Wind Spd Definition
km/h
Visibility Definition
km
Stn Press Definition
kPa
Hmdx Definition


Wind Chill Definition


Weather Definition


00:00 6.5 2.2 74 0.0 5 13   101.79     LegendNANA
01:00 5.9 2.2 77 0.0 7 11   101.74     LegendNANA
02:00 5.4 2.9 84 1.0 6 13   101.65     LegendNANA
03:00 5.0 2.7 85 0.8 6 13   101.51     LegendNANA
04:00 4.8 2.9 88 1.4 5 15   101.56     LegendNANA
05:00 4.7 3.0 88 0.5 5 14   101.64     LegendNANA
06:00 4.6 2.6 87 0.5 5 14   101.65     LegendNANA
07:00 4.3 1.9 84 0.0 4 10   101.77     LegendNANA
08:00 4.5 1.5 81 0.0 2 11   101.85     LegendNANA
09:00 5.3 2.0 79 0.0 3 12   101.87     LegendNANA
10:00 7.6 3.2 74 0.0 4 12   101.94     LegendNANA
11:00 9.0 2.9 66 0.0 5 13   102.00     LegendNANA
12:00 9.9 3.6 65 0.0 5 11   102.01     LegendNANA
13:00 9.7 2.6 61 0.0 5 7   102.01     LegendNANA
14:00 9.3 3.0 65 0.0 9 13   102.00     LegendNANA
15:00 10.0 2.1 58 0.0 9 7   102.10     LegendNANA
16:00 9.6 2.6 62 0.0 13 11   102.11     LegendNANA
17:00 8.5 2.6 67 0.0 12 5   102.20     LegendNANA
18:00 5.8 1.4 73 0.0 10 2   102.30     LegendNANA
19:00 5.5 2.5 81 0.0 5 6   102.41     LegendNANA
20:00 6.2 2.7 78 0.0 2 8   102.42     LegendNANA
21:00 5.3 1.5 76 0.0 3 9   102.48     LegendNANA
22:00 5.1 1.3 76 0.0 3 9   102.50     LegendNANA
23:00 4.8 1.1 77 0.0 4 10   102.49     LegendNANA

Notes on Data Quality.

Legend

  • E = Estimated
  • M = Missing
  • NA = Not Available*
  • [empty] = Indicates an unobserved value
Date modified: